Regional Weather Roundup
Issued by NWS State College, PA

Home | Current Version | Previous Version | Graphics & Text | Print | Product List | Glossary On
Versions: 1 2 3 4 5 6 7 8 9 10 11 12 13 14 15 16 17 18 19 20 21 22 23 24 25 26 27 28 29 30 31 32 33 34 35 36 37 38 39 40 41 42 43 44 45 46 47 48 49 50
000
ASUS41 KCTP 251703
RWRCTP

REGIONAL WEATHER ROUNDUP
NATIONAL WEATHER SERVICE STATE COLLEGE PA
100 PM EDT MON JUL 25 2016

Note: "fair" indicates few or no clouds below 12,000 feet with no
significant weather and/or obstructions to visibility.

* = STATION THAT DOES NOT REPORT PRECIPITATION /E.G. RAIN...SNOW...ETC/
    THUNDER OR FOG.

PAZ002>004-007>009-013>016-020>023-029>032-251800-
WESTERN PENNSYLVANIA

CITY           SKY/WX    TMP DP  RH WIND       PRES   REMARKS
ERIE           TSTM      73  71  93 SW10G22   29.93R VSB 3/4
MEADVILLE      LGT RAIN  81  72  74 W17       29.96S
FRANKLIN*      CLOUDY    86  72  62 W12G22    29.97F
NEW CASTLE     FAIR      88  74  63 W12       29.96F HX  96
BEAVER COUNTY  PTSUNNY   88  73  62 W12G17    29.97F HX  96
BUTLER*        PTSUNNY   88  75  66 SW13      29.99F HX  97
PITTSBURGH INT PTSUNNY   89  69  51 W12       29.96F
PITTSBURGH     MOSUNNY   90  71  53 SW17      29.96F HX  96
INDIANA*       PTSUNNY   90  75  62 W14G21    29.99F HX 100
LATROBE        PTSUNNY   90  75  62 W17G29    29.98F HX 100
WASHINGTON CO* MOSUNNY   91  73  55 SW9G17    29.99F HX 100
$$

PAZ004>006-010>012-017>019-024>028-033>037-041-042-045-046-049>053-251800-
CENTRAL PENNSYLVANIA

CITY           SKY/WX    TMP DP  RH WIND       PRES   REMARKS
BRADFORD       CLOUDY    84  70  62 SW9G16    29.96F
DUBOIS         CLOUDY    86  72  62 W17G23    29.97F
CLEARFIELD     CLOUDY    91  72  53 SW12G20   29.95F HX  98
JOHNSTOWN      MOSUNNY   87  69  54 W16G23    30.03F
ALTOONA        CLOUDY    92  71  50 W13G18    29.98F HX  98
STATE COLLEGE  MOSUNNY   88  75  66 SW8       29.95F HX  97
WILLIAMSPORT   CLOUDY    89  72  56 SE6       29.88F HX  96
SELINSGROVE    PTSUNNY   91  77  63 S8        29.90F HX 104
FT INDIANTOWN  CLOUDY    93  74  53 SW12      29.91F HX 102
CAPITAL CITY   PTSUNNY   92  74  55 SW5       29.91F HX 101
HARRISBURG     CLOUDY    92  77  61 CALM      29.90F HX 105
YORK           MOSUNNY   94  74  52 VRB7      29.92F HX 104
$$

PAZ038>040-043-044-047-048-054-055-060>062-067>071-251800-
EASTERN PENNSYLVANIA

CITY           SKY/WX    TMP DP  RH WIND       PRES   REMARKS
SCRANTON       MOSUNNY   91  71  51 SW10G22   29.91F HX  97
MOUNT POCONO   MOSUNNY   85  69  58 NW9       29.99F
ALLENTOWN      MOSUNNY   92  70  48 SW9       29.90F HX  97
QUAKERTOWN*    SUNNY     91  72  52 CALM      29.93F HX  98
READING        SUNNY     92  72  51 SW7       29.90F HX  99
LANCASTER      CLOUDY    90  74  59 W9        29.92F HX  99
COATESVILLE    SUNNY     90  75  62 SW7       29.95F HX 100
POTTSTOWN      CLOUDY    91  71  51 W7        29.93F HX  97
BLUE BELL      SUNNY     88  73  62 SW6       29.90F HX  96
DOYLESTOWN     SUNNY     89  70  53 W7        29.91F
WILLOW GROVE   NOT AVBL
NORTH PHILA    SUNNY     93  75  55 VRB5      29.91F HX 104
PHILADELPHIA   MOSUNNY   91  74  57 SW10      29.90F HX 100
$$



USA.gov is the U.S. government's official web portal to all federal, state and local government web resources and services.